カタログに戻る

OPS 4682 DEB

運用中PO
NORAD 14717·DEBRIS·🇺🇸 United States

打ち上げ Apr 3, 1965 から Vandenberg Space Force Base

Loading…

次のパス (今後24時間)

TLE

最新Source: Space-Track

元期: Sep 14, 2026, 13:06 UTC

1 14717U 65027Q   26257.54612449  .00000101  00000-0  32127-3 0  9997
2 14717  90.2396 352.6394 0033590 205.9615 215.8499 12.97535511127671

AllMySatでOPS 4682 DEBをリアルタイム追跡

Download on the App Store